Location: Santa Cristina
(46.5667°N, 11.7167°E)
Time: 05:13:07
(UTC+00:00)

COSMOS 2406 - Pass Details

Date: 21 April 2021
Orbit: 845 x 862 km, 71.0° (Epoch: 15 May)

Event Time Altitude Azimuth Distance (km) Brightness Sun altitude
Rises 01:43:57 0° 324° (NW) 3,417 6.5 -22.4°
Reaches altitude 10° 01:46:43 10° 313° (NW) 2,475 5.6 -22.0°
Enters shadow 01:50:13 26° 278° (W) 1,623 4.4 -21.6°
